Tracking 19720 objects as of 26-Jun-2019
HD Live streaming from Space Station
objects crossing your sky now

TANSEI 3 DEB

Track TANSEI 3 DEB now!
10-day predictions


NORAD ID: 13133
Int'l Code: 1977-012J
Perigee: 807.3 km
Apogee: 3,658.2 km
Inclination: 65.8 °
Period: 132.4 minutes
Semi major axis: 8603 km
RCS: 0.0169 m2 (small)
Launch date: February 19, 1977
Source: Japan (JPN)
Launch site: KAGOSHIMA SPACE CENTER UNIVERSITY OF TOKYO (KSCUT)

Note: This is SATELLITE DEBRIS
aabbcc
Your satellite tracking list
Your tracking list is empty




NASA's NSSDC Master Catalog

Two Line Element Set (TLE):
1 13133U 77012J   19175.65115757 -.00000123 +00000-0 -24002-3 0  9997
2 13133 065.8430 045.5027 1656742 039.9531 331.2194 10.87857064667124
Source of the keplerian elements: AFSPC